SKYSAT-C10

Last updated on Wed Sep 17 2025 00:02:31 GMT+0000 (Coordinated Universal Time)

1 42988U 17068B 25259.33524870 .00012031 00000+0 39567-3 0 9997 2 42988 97.4163 30.0100 0001860 91.8725 268.2730 15.31678008440414
UTC large
Height (km)
Speed (km/s)
/
Latitude / Longitude
Inclination (degrees)
Orbital Period (minutes)
Azimuth
Elevation
Range (km)
Doppler Factor

Next 0 passes for location: London (51.5072 / 0.1276)

Sorry there are no passes over London.